Wind_Speed
42 42 44 53 46 38 36 36 37 43 49 43 36 30 30 39 46 47 44 45 41 36 35 34 35 37 47 50 51 52 51 53 53 55 57 59 60 59 61 61 59 58 57 57
49 45 54 55 52 47 45 42 38 38 46 43 38 30 34 38 45 51 47 49 44 40 38 37 36 35 38 43 43 47 50 53 55 57 56 57 58 59 58 58 59 59 59 60
55 51 59 59 56 56 51 51 49 44 45 42 41 30 39 40 41 49 52 51 47 44 41 39 38 38 38 39 40 40 42 45 49 51 51 53 54 55 55 57 59 60 60 60
56 64 62 59 60 69 55 65 58 54 50 41 45 26 41 46 44 45 49 55 58 55 50 46 45 43 42 44 46 48 50 50 51 52 53 54 55 57 58 60 63 64 65 64
68 63 66 63 68 70 65 72 70 66 59 51 47 45 35 46 50 49 50 55 57 59 58 57 54 51 51 50 50 53 55 56 57 55 55 55 57 59 62 65 66 67 68 68
60 65 70 73 70 73 80 84 80 73 73 53 58 62 33 51 52 53 52 54 51 59 58 59 62 61 59 58 59 57 58 58 58 58 58 59 62 63 64 66 70 73 74 73
82 80 74 80 85 82 87 88 90 78 76 79 78 69 52 57 59 61 61 60 57 56 59 62 64 64 63 62 62 61 62 60 58 58 60 61 62 64 66 70 73 77 79 78
85 74 83 82 85 91 94 88 93 103 90 75 84 74 61 67 65 61 55 62 68 66 60 61 70 71 70 69 68 68 67 66 65 64 63 65 68 71 74 76 78 81 83 83
100 90 87 87 94 92 95 94 101 108 103 101 85 78 71 75 70 68 72 74 70 75 76 71 74 78 74 74 74 79 74 73 69 72 72 74 78 79 82 84 86 85 87 91
111 119 101 101 100 99 104 105 104 111 117 114 108 100 91 94 86 88 90 82 89 73 78 89 80 81 81 79 85 86 83 79 77 82 82 81 83 90 90 94 95 90 92 93
124 128 113 107 106 113 115 123 123 122 124 126 124 117 103 101 98 100 95 99 101 95 97 99 96 93 89 90 87 86 89 89 86 89 92 91 91 96 96 94 98 103 97 99
128 132 134 119 122 121 123 136 141 138 132 131 137 137 112 107 110 104 101 102 107 101 100 107 104 100 102 102 99 99 98 92 99 95 95 99 103 104 101 98 100 102 102 103
132 137 139 142 134 129 148 146 146 144 152 148 145 142 124 119 112 105 107 106 104 106 107 104 107 110 111 111 110 103 102 101 98 102 103 100 107 104 108 107 105 107 108 110
133 134 140 149 147 144 155 149 143 140 149 151 152 144 127 108 100 97 100 103 103 106 107 105 109 110 114 116 115 110 103 106 104 103 101 102 108 111 108 111 115 117 115 116
146 149 150 150 154 159 151 145 142 142 132 141 134 135 123 115 101 105 104 96 103 109 113 114 116 108 107 108 108 109 109 106 105 105 105 106 112 117 119 114 112 117 119 115
151 148 142 140 128 116 116 118 114 110 112 125 131 132 123 118 115 115 111 108 114 114 114 107 107 105 107 110 107 111 107 101 96 96 95 102 110 117 113 103 100 100 105 105
130 128 126 121 119 117 113 97 96 100 108 110 111 111 120 120 119 118 119 113 112 111 116 108 113 109 103 109 108 106 105 104 101 102 100 99 100 102 98 101 104 104 105 105
117 118 118 113 110 118 111 110 109 98 105 109 111 117 117 115 111 117 124 126 126 124 117 120 105 120 118 101 110 130 131 115 114 108 106 107 112 110 110 116 121 111 111 111
129 128 127 127 124 121 117 123 118 112 113 111 113 112 112 111 105 109 110 106 110 118 125 126 127 128 131 131 135 137 137 134 130 124 121 124 120 116 116 121 116 120 121 123
117 121 126 125 125 119 119 119 121 118 118 117 114 111 106 107 98 107 109 111 112 109 111 112 112 116 120 125 128 125 125 127 126 126 123 117 116 117 122 116 117 124 125 126
112 115 123 124 126 123 119 115 115 119 121 120 121 117 107 101 97 101 103 101 106 111 109 108 108 110 112 114 117 114 114 114 111 112 110 110 110 112 110 107 110 113 113 114
112 115 116 123 125 123 119 122 123 116 115 117 121 119 118 108 105 107 107 101 101 101 100 98 100 101 106 111 113 112 112 110 111 111 108 107 107 107 107 106 107 109 108 107
112 115 113 114 112 114 118 122 120 116 116 117 114 114 111 107 103 107 109 108 106 104 104 102 101 97 103 105 106 108 111 111 111 111 110 107 107 108 109 109 110 110 108 107
110 111 110 109 105 107 109 114 118 114 115 113 111 109 110 107 103 105 105 103 105 105 109 109 108 103 103 103 103 104 106 109 109 108 111 109 110 109 109 109 109 109 109 109
100 101 104 102 102 109 100 103 104 107 107 106 107 106 106 106 103 103 104 102 102 100 103 104 102 97 99 99 96 97 102 102 102 103 107 106 107 107 108 107 106 108 107 107
97 98 103 99 100 101 94 101 101 94 94 95 95 97 99 100 99 101 99 101 101 101 101 101 104 100 100 104 102 100 102 103 102 101 105 104 103 101 102 104 103 102 105 105
Wind_Direction
287 293 287 279 288 283 285 285 277 270 274 277 277 271 277 286 289 286 282 283 282 277 274 270 268 261 257 255 255 257 259 261 262 263 264 264 265 267 268 269 271 274 275 276
284 295 284 286 284 282 283 278 278 275 277 277 271 271 272 276 280 283 285 281 280 278 273 270 271 270 264 264 260 257 257 258 261 265 266 265 267 268 270 270 273 275 276 279
288 292 283 282 286 284 281 282 274 274 275 284 274 274 274 274 271 279 284 282 280 277 276 273 268 268 267 268 270 267 263 263 263 264 266 268 269 270 271 273 273 275 277 278
287 284 288 291 291 283 289 280 280 277 276 273 277 267 270 268 271 271 278 279 280 280 278 275 272 270 269 269 270 272 270 268 268 270 271 270 270 272 273 274 274 276 276 276
280 277 282 287 284 285 290 289 286 285 283 278 277 270 259 274 278 275 272 272 278 279 275 276 272 272 272 270 270 270 270 270 269 268 269 271 272 273 275 276 277 277 277 276
283 284 283 278 283 288 284 281 287 286 280 283 285 278 273 267 271 271 271 273 271 275 277 276 275 275 274 274 274 271 268 269 269 271 272 273 274 274 277 277 276 276 276 276
280 280 286 285 275 283 287 282 280 287 282 278 276 282 284 284 265 263 267 270 272 273 269 274 275 276 275 275 274 272 271 269 270 270 272 274 276 278 281 281 282 282 281 280
285 279 280 281 281 279 280 281 283 283 284 280 273 281 287 286 283 275 264 265 267 269 274 275 272 270 271 272 274 276 276 276 277 275 272 278 280 283 284 286 284 283 281 284
278 286 277 276 276 278 278 281 278 281 281 284 287 284 287 282 280 278 276 267 271 269 269 271 276 268 265 266 266 267 268 270 270 271 273 278 278 278 284 284 286 284 282 282
284 285 287 283 274 280 278 279 280 282 283 281 283 286 288 285 284 284 281 276 270 271 272 269 265 266 259 259 268 270 268 266 270 273 271 273 276 279 281 282 283 285 283 281
285 284 286 278 278 281 282 284 287 284 284 284 283 282 284 283 285 280 275 278 284 275 274 276 275 264 258 261 262 265 266 268 270 272 273 270 274 278 279 277 278 278 279 281
284 285 283 281 280 279 282 285 286 282 282 282 283 282 284 278 278 279 279 272 277 276 270 270 272 272 261 266 267 269 264 269 265 272 275 271 275 273 276 276 276 275 277 279
281 283 283 285 286 283 287 287 287 287 286 285 284 285 283 283 285 277 274 273 276 275 273 266 268 269 268 266 269 270 270 273 267 270 272 274 274 275 276 275 276 276 277 278
276 275 277 281 283 281 281 281 282 282 282 284 283 284 284 282 280 278 274 274 274 271 269 270 268 266 267 267 265 269 273 272 271 270 271 272 272 274 276 277 274 275 276 277
274 276 276 274 274 278 278 276 277 276 273 275 281 280 277 276 271 271 269 264 264 265 268 268 264 267 264 264 265 270 273 274 272 269 270 267 270 271 272 279 274 271 273 274
276 278 278 278 277 275 274 270 273 273 270 269 272 274 277 273 266 268 269 265 268 265 268 272 272 272 275 272 266 267 267 273 275 272 271 267 267 268 272 274 274 274 275 277
277 277 278 277 277 277 274 273 271 272 270 268 270 272 268 271 272 270 268 264 269 271 270 275 276 279 281 273 276 278 279 280 281 275 275 275 278 280 279 283 285 284 283 285
278 276 276 276 275 275 279 279 276 271 270 268 267 268 269 269 268 269 269 267 267 265 262 264 269 273 276 275 274 281 280 280 281 281 281 282 283 283 282 282 283 285 286 286
277 277 276 275 276 277 277 278 278 277 274 271 268 268 270 271 268 269 270 272 268 264 263 261 260 262 264 265 269 272 275 276 276 277 276 278 277 278 281 279 281 285 286 285
275 276 275 275 274 274 273 273 275 276 275 273 272 271 270 270 267 268 270 270 270 270 268 266 265 266 267 268 269 269 270 271 270 270 275 275 276 277 278 277 280 280 280 281
272 273 274 276 276 277 277 275 274 272 273 275 276 276 274 271 271 270 268 264 264 268 269 269 269 268 268 268 268 269 269 271 271 271 272 273 274 275 275 276 277 277 276 276
273 271 271 272 273 275 275 274 274 274 273 271 272 272 273 273 271 271 270 269 268 267 267 266 265 266 266 267 269 271 271 270 270 270 271 271 272 273 274 274 274 275 276 277
275 273 272 271 272 272 270 272 272 273 272 271 271 272 272 272 270 269 270 270 269 268 269 267 265 265 266 267 268 268 271 272 272 272 272 272 272 272 272 272 273 274 276 278
274 275 276 275 272 271 268 270 271 270 270 271 272 272 273 273 272 271 270 269 269 268 267 266 267 266 265 266 266 266 267 268 268 269 270 270 270 271 271 272 274 275 276 276
275 274 274 276 275 272 271 270 269 271 272 271 271 272 272 271 270 268 268 267 267 267 267 267 266 265 266 263 264 263 264 264 266 266 266 266 267 268 269 271 271 273 273 274
276 276 273 271 271 274 275 275 274 273 272 272 272 271 271 269 267 266 265 266 267 267 265 264 265 265 264 264 265 265 265 264 263 262 262 262 262 263 263 265 268 269 270 271
Height
10750 10751 10744 10730 10739 10741 10742 10743 10744 10741 10733 10740 10744 10747 10742 10731 10723 10722 10724 10723 10724 10724 10723 10722 10721 10721 10718 10718 10718 10717 10717 10715 10714 10714 10713 10713 10712 10711 10709 10709 10709 10708 10706 10705
10737 10744 10729 10727 10726 10730 10730 10729 10731 10732 10724 10730 10733 10738 10735 10726 10716 10706 10715 10710 10713 10714 10713 10712 10711 10710 10709 10707 10706 10707 10705 10703 10702 10701 10701 10699 10699 10697 10697 10696 10695 10694 10692 10690
10727 10727 10717 10715 10717 10711 10716 10714 10714 10718 10713 10717 10723 10735 10723 10714 10711 10704 10698 10703 10702 10701 10702 10702 10701 10699 10698 10697 10696 10695 10694 10693 10691 10690 10689 10687 10685 10683 10683 10683 10681 10679 10678 10676
10718 10707 10705 10707 10708 10688 10714 10689 10699 10701 10701 10708 10705 10723 10718 10705 10702 10697 10694 10690 10688 10689 10691 10690 10688 10687 10686 10686 10686 10685 10683 10682 10680 10679 10677 10674 10673 10671 10670 10668 10666 10665 10663 10661
10703 10695 10691 10692 10688 10681 10696 10679 10679 10684 10687 10694 10696 10694 10712 10699 10693 10690 10682 10678 10676 10672 10673 10673 10673 10674 10673 10673 10673 10671 10669 10668 10667 10666 10664 10662 10659 10657 10655 10652 10649 10648 10648 10646
10681 10677 10681 10676 10670 10664 10666 10663 10658 10662 10667 10682 10674 10672 10711 10687 10686 10678 10674 10668 10668 10659 10658 10655 10653 10653 10654 10655 10656 10655 10652 10652 10650 10650 10648 10646 10643 10641 10639 10634 10630 10627 10627 10628
10662 10668 10664 10655 10651 10646 10639 10641 10636 10639 10641 10658 10655 10659 10676 10671 10666 10665 10661 10657 10654 10651 10647 10644 10638 10634 10631 10633 10635 10636 10635 10635 10634 10634 10632 10630 10626 10624 10622 10618 10614 10610 10605 10604
10641 10655 10643 10640 10626 10626 10624 10617 10614 10596 10615 10629 10632 10651 10659 10649 10649 10645 10647 10646 10643 10638 10634 10631 10624 10622 10620 10616 10613 10612 10613 10615 10617 10615 10612 10612 10607 10604 10602 10598 10595 10589 10583 10580
10605 10628 10623 10619 10607 10602 10606 10600 10591 10568 10577 10584 10618 10628 10634 10631 10630 10634 10631 10627 10625 10621 10616 10610 10605 10602 10603 10598 10598 10594 10596 10597 10597 10593 10593 10591 10586 10581 10580 10577 10574 10568 10563 10555
10574 10563 10607 10588 10581 10586 10569 10565 10567 10557 10541 10543 10566 10592 10609 10608 10608 10609 10603 10602 10598 10594 10592 10587 10583 10578 10575 10575 10572 10573 10574 10576 10575 10570 10571 10568 10565 10559 10556 10551 10547 10545 10540 10534
10542 10534 10573 10559 10559 10549 10544 10539 10543 10533 10523 10516 10516 10540 10584 10582 10584 10576 10571 10568 10567 10567 10563 10555 10547 10544 10545 10545 10546 10547 10546 10549 10553 10546 10541 10543 10541 10536 10532 10527 10522 10518 10514 10510
10514 10497 10495 10521 10519 10518 10514 10514 10506 10490 10497 10491 10483 10479 10549 10545 10544 10543 10542 10536 10533 10529 10525 10521 10518 10515 10512 10508 10509 10516 10520 10525 10522 10521 10518 10517 10513 10510 10507 10501 10495 10490 10487 10483
10487 10464 10457 10463 10488 10499 10469 10468 10457 10451 10444 10450 10450 10456 10484 10485 10502 10509 10501 10499 10493 10481 10482 10482 10481 10478 10477 10478 10478 10483 10490 10497 10496 10491 10491 10490 10485 10478 10473 10470 10466 10460 10457 10455
10448 10439 10437 10438 10447 10456 10443 10443 10438 10425 10410 10413 10405 10416 10443 10446 10451 10462 10452 10454 10452 10448 10444 10450 10443 10443 10444 10445 10450 10454 10462 10463 10465 10465 10465 10463 10455 10448 10445 10441 10435 10430 10427 10425
10410 10406 10409 10416 10414 10407 10401 10401 10401 10390 10394 10376 10383 10375 10388 10408 10425 10420 10413 10419 10413 10412 10411 10407 10402 10408 10410 10414 10424 10430 10429 10431 10433 10435 10437 10433 10423 10418 10415 10412 10401 10395 10393 10390
10375 10367 10370 10363 10364 10369 10353 10359 10371 10370 10370 10353 10344 10335 10363 10362 10363 10372 10388 10386 10369 10356 10369 10384 10388 10388 10385 10383 10389 10390 10393 10396 10398 10401 10399 10395 10392 10386 10384 10380 10368 10365 10360 10357
10338 10332 10329 10324 10326 10314 10307 10343 10343 10337 10331 10327 10317 10313 10300 10315 10324 10335 10349 10354 10347 10339 10345 10346 10352 10354 10348 10344 10342 10350 10355 10361 10363 10359 10361 10360 10356 10354 10348 10343 10339 10334 10331 10329
10298 10295 10287 10286 10292 10275 10293 10301 10293 10301 10300 10295 10281 10271 10277 10281 10299 10290 10298 10306 10318 10320 10324 10321 10327 10327 10319 10319 10317 10315 10318 10325 10326 10327 10327 10323 10322 10324 10321 10317 10312 10309 10304 10298
10253 10255 10249 10243 10254 10257 10268 10253 10252 10258 10259 10247 10243 10247 10248 10251 10270 10261 10262 10265 10275 10281 10284 10289 10295 10299 10298 10296 10292 10292 10293 10294 10299 10299 10295 10291 10289 10290 10291 10287 10283 10279 10273 10269
10229 10213 10201 10215 10209 10217 10224 10229 10221 10216 10208 10201 10206 10211 10221 10221 10231 10236 10233 10232 10234 10238 10242 10248 10258 10262 10261 10256 10253 10255 10258 10260 10261 10263 10266 10266 10262 10261 10262 10258 10255 10252 10244 10236
10207 10194 10171 10168 10164 10170 10179 10192 10195 10178 10171 10168 10163 10168 10181 10189 10192 10200 10197 10203 10203 10201 10203 10207 10216 10218 10217 10215 10212 10218 10223 10225 10230 10231 10233 10231 10231 10230 10231 10229 10225 10219 10212 10209
10172 10164 10165 10146 10139 10142 10152 10139 10134 10141 10144 10142 10135 10136 10139 10149 10155 10156 10160 10167 10167 10168 10170 10174 10179 10181 10178 10175 10173 10177 10183 10188 10192 10195 10196 10194 10195 10195 10193 10190 10189 10185 10184 10180
10122 10119 10123 10122 10124 10118 10108 10093 10098 10103 10101 10097 10100 10103 10106 10114 10121 10123 10128 10129 10130 10132 10136 10136 10139 10146 10144 10144 10142 10146 10146 10148 10152 10155 10156 10158 10160 10159 10157 10157 10155 10154 10153 10150
10088 10081 10079 10079 10088 10082 10075 10065 10055 10068 10067 10071 10071 10076 10077 10077 10084 10086 10087 10092 10094 10096 10096 10097 10100 10107 10113 10108 10111 10115 10113 10111 10115 10118 10116 10120 10120 10121 10121 10122 10123 10120 10120 10119
10061 10055 10048 10045 10044 10021 10042 10035 10035 10031 10034 10041 10043 10043 10043 10041 10049 10047 10051 10054 10057 10057 10056 10055 10062 10071 10076 10069 10071 10075 10078 10076 10078 10081 10083 10085 10086 10086 10087 10089 10090 10087 10087 10085
10025 10020 10005 10011 10007 9997 10014 9997 9992 10006 10010 10009 10011 10010 10006 10005 10011 10009 10017 10017 10017 10019 10019 10023 10021 10028 10034 10032 10036 10040 10038 10039 10045 10050 10050 10052 10054 10057 10058 10058 10058 10057 10055 10055